Location: Clanezzo
(45.7500°N, 9.6000°E)
Time: 07:33:22
(UTC+00:00)

AO-92 - Pass Details

Date: 04 July 2022
Orbit: 469 x 481 km, 97.4° (Epoch: 17 August)

Event Time Altitude Azimuth Distance (km) Brightness Sun altitude
Exits shadow 21:30:29 34° 183° (S) 805 ? -16.6°
Maximum altitude 21:31:53 70° 258° (WSW) 515 ? -16.7°
Drops below altitude 10° 21:35:28 10° 343° (NNW) 1,672 ? -17.0°
Sets 21:37:33 0° 346° (NNW) 2,559 ? -17.1°
